Regional Weather Roundup
Issued by NWS

Home | Current Version | Previous Version | Text Only | Print | Product List | Glossary On
Versions: 1 2 3 4 5 6 7 8 9 10 11 12 13 14 15 16 17 18 19 20 21 22 23 24 25 26 27 28 29 30 31 32 33 34 35 36 37 38 39 40 41 42 43 44 45 46 47 48 49 50
000
ASUS43 KMKX 281021
RWRWI

WISCONSIN REGIONAL WEATHER ROUNDUP
NATIONAL WEATHER SERVICE MILWAUKEE/SULLIVAN WI
500 AM CDT FRI APR 28 2017

NOTE: "FAIR" INDICATES FEW OR NO CLOUDS BELOW 12,000 FEET WITH NO
SIGNIFICANT WEATHER AND/OR OBSTRUCTIONS TO VISIBILITY.

WIZ001-002-006>008-014>016-023>028-281100-
NORTHWEST WISCONSIN

CITY           SKY/WX    TMP DP  RH WIND       PRES   REMARKS
SUPERIOR ARPT  CLOUDY    31  24  75 W10       29.77R WCI  22
ASHLAND        CLOUDY    30  24  78 W9        29.75R WCI  22
HAYWARD        CLOUDY    30  24  78 W3        29.78R
SIREN          CLOUDY    32  25  77 CALM      29.80R
CUMBERLAND     CLOUDY    30  25  80 W9        29.80R WCI  22
RICE LAKE      CLOUDY    32  26  78 W8        29.82R WCI  25
CHETEK         NOT AVBL
LADYSMITH      CLOUDY    32  26  77 SW9       29.80R WCI  24
EAU CLAIRE     CLOUDY    34  27  75 W12       29.83R WCI  25
MENOMONIE      CLOUDY    34  28  78 SW9       29.84R WCI  27
NEW RICHMOND   CLOUDY    34  26  74 W5        29.83R WCI  30
OSCEOLA        CLOUDY    35  27  72 W10       29.86R WCI  27
$$

WIZ003>005-009-010-017-018-281100-
NORTH CENTRAL WISCONSIN

CITY           SKY/WX    TMP DP  RH WIND       PRES   REMARKS
MANITOWISH WTR CLOUDY    28  27  96 W12G17    29.71R WCI  17
ARBOR VITAE    CLOUDY    32  29  89 W9        29.72R FOG     WCI  24
WOODRUFF       CLOUDY    32  29  89 W9        29.72R FOG     WCI  24
RHINELANDER    CLOUDY    30  25  81 W17G25    29.75R WCI  18
EAGLE RIVER    CLOUDY    28  23  82 W12G18    29.72R WCI  18
LAND O LAKES   CLOUDY    28  25  89 W6        29.71R WCI  22
PHILLIPS       CLOUDY    28  25  88 SW9       29.75R WCI  20
TOMAHAWK       CLOUDY    29  23  77 W6        29.77R WCI  23
MEDFORD        CLOUDY    30  24  77 W9        29.78R WCI  22
MERRILL        CLOUDY    30  26  85 W10       29.79R WCI  21
$$

WIZ029-030-035-036-043>047-281100-
CENTRAL WISCONSIN

CITY           SKY/WX    TMP DP  RH WIND       PRES   REMARKS
WAUSAU         CLOUDY    31  26  82 W12       29.79R WCI  22
MOSINEE        CLOUDY    32  28  86 W17       29.81R WCI  21
MARSHFIELD     CLOUDY    32  25  75 W12       29.80R WCI  23
STEVENS POINT  CLOUDY    31  27  84 SW9       29.83R WCI  23
WAUPACA        CLOUDY    36  31  83 W9        29.84S WCI  29
WAUTOMA        CLOUDY    35  29  78 W8        29.86R WCI  29
WISC RAPIDS    CLOUDY    34  27  75 SW8       29.84R WCI  27
CAMP DOUGLAS   CLOUDY    32  28  86 W8        29.85R WCI  25
$$

WIZ011>013-019>022-031-037>040-048>050-281100-
NORTHEAST WISCONSIN

CITY           SKY/WX    TMP DP  RH WIND       PRES   REMARKS
ANTIGO         CLOUDY    28  25  86 W12       29.78R WCI  18
SHAWANO        CLOUDY    35  27  70 W10G17    29.83R WCI  28
OCONTO         CLOUDY    34  27  75 W16G23    29.81R WCI  24
STURGEON BAY   CLOUDY    36  29  75 W14G21    29.82R WCI  27
GREEN BAY      CLOUDY    36  32  85 W15       29.84R WCI  27
MANITOWOC      CLOUDY    38  32  79 W8        29.85R WCI  32
APPLETON       CLOUDY    34  30  86 W14       29.82R WCI  24
CLINTONVILLE   CLOUDY    34  27  75 W14G20    29.83R WCI  24
OSHKOSH        CLOUDY    36  28  73 W7        29.84R WCI  30
$$

WIZ032>034-041-042-053>061-281100-
SOUTHWEST WISCONSIN

CITY           SKY/WX    TMP DP  RH WIND       PRES   REMARKS
LA CROSSE      CLEAR     35  27  72 W9        29.87R WCI  28
SPARTA         CLEAR     33  28  80 W3        29.87R
VIROQUA        CLEAR     32  28  87 W5        29.85S WCI  27
BOSCOBEL       PTCLDY    35  28  75 NW3       29.88S
PRAIRIE DU CHI CLEAR     33  27  77 CALM      29.88S
PLATTEVILLE    CLEAR     32  31  96 W6        29.87S WCI  26
$$

WIZ056-057-062-063-064-067-068-281100-
SOUTH CENTRAL WISCONSIN

CITY           SKY/WX    TMP DP  RH WIND       PRES   REMARKS
REEDSBURG      CLOUDY    34  28  80 W9        29.86R WCI  26
BARABOO/DELLS  CLOUDY    34  28  77 W9        29.86R WCI  27
LONE ROCK      CLOUDY    36  28  73 NW9       29.87S WCI  29
MINERAL POINT  CLOUDY    32  32 100 W3        29.85S
MADISON        CLOUDY    35  29  78 CALM      29.86R
MIDDLETON      CLOUDY    35  30  83 SW3       29.86S
WATERTOWN      CLEAR     33  33  98 SW6       29.86R WCI  28
MONROE         PTCLDY    34  32  93 W9        29.84F WCI  26
JANESVILLE     CLEAR     34  34 100 NW5       29.85F WCI  30
$$

WIZ051-052-058>065-066-070>072-281100-
SOUTHEAST WISCONSIN

CITY           SKY/WX    TMP DP  RH WIND       PRES   REMARKS
MILWAUKEE      PTCLDY    39  31  72 W7        29.86S WCI  34
WAUKESHA       CLEAR     32  30  93 SW5       29.86S WCI  27
MILWAUKEE/TIMM CLEAR     34  28  80 W5        29.86S WCI  30
RACINE         PTCLDY    39  30  70 W6        29.88S WCI  35
KENOSHA        MOCLDY    36  30  79 W5        29.87S WCI  32
FOND DU LAC    CLOUDY    37  27  67 W12       29.85R WCI  29
SHEBOYGAN      CLOUDY    38  33  82 W15       29.84R WCI  29
WEST BEND      CLOUDY    36  32  87 W9        29.85R WCI  29
JUNEAU         CLOUDY    36  30  79 W5        29.86R WCI  32
$$

LSZ147-162-281100-
LAKE SUPERIOR

STATION/POSITION TIME  TEMP    WIND        PRES    WAVE
                       AIR SEA DIR/SP/G            HT/PER
                 (UTC) (F)     (DEG/KT/KT) (MB)    (FT/S)
DEVILS ISLAND    1000   31     260/ 20/ 24 1007.0R
PORT WING        0940   33     270/ 15/ 19 1007.5R
SAXON HARBOR     0940   30     220/  6/  9 1007.1R
$$

LMZ867-665-643>646-281100-
LAKE MICHIGAN

STATION/POSITION TIME  TEMP    WIND        PRES    WAVE
                       AIR SEA DIR/SP/G            HT/PER
                 (UTC) (F)     (DEG/KT/KT) (MB)    (FT/S)
CHAMBERS ISLAND  0940   35     240/ 11/ 19 1008.8R
N MID LAKE BUOY  0950   35 37  260/ 16/ 17 1009.8R   3/ 4
NORTHPORT PIER   0940   34     280/  4/  8 1009.1R
KEWAUNEE LAKESHO 0954   38     270/  9/ 18 1009.7R
SHEBOYGAN LAKESH 1000   40     270/ 12/ 16 1011.0R
PORT WASHINGTON  0940   40     270/  6/ 13 1011.9R
MILWAUKEE LAKESH 1000   39     260/  7/ 10   N/A
S MID LAKE BUOY  0950   42 41  280/  6/  6 1012.3R   2/ 4
KENOSHA   LAKESH 1000   41     270/  3/  7 1011.5
$$

TC  - TEMPERATURE IN CELSIUS
VSB - VISIBILITY IN STATUTE MILES
WCI - WIND CHILL INDEX
HX  - HEAT INDEX




USA.gov is the U.S. government's official web portal to all federal, state and local government web resources and services.